Location: Gudip?du
(17.0263°N, 80.8301°E)
Time: 06:15:34
(UTC+00:00)

Milstar 3 - Pass Details

Date: 03 August 2024
Orbit: 1098 x 5146 km, 28.2° (Epoch: 08 September)

Event Time Altitude Azimuth Distance (km) Brightness Sun altitude
Rises 16:52:44 0° 296° (WNW) 3,943 6.3 -46.3°
Reaches altitude 10° 16:55:14 10° 302° (WNW) 3,086 5.6 -46.7°
Enters shadow 16:58:55 32° 324° (NW) 2,093 4.4 -47.2°
